Flag for Switzerland Weather past 2 weeks in Köniz, Bern, Switzerland

52 °F

Partly sunny.

Feels Like: 49 °F
Forecast: 31 / 47 °F
Wind: 9 mph from West

Location: Bern / Belp

Current Time: Nov 30, 2015 at 12:01:05 PM

Latest Report: Nov 30, 2015 at 11:20 AM

Visibility: N/A

Pressure: 30.42 "Hg (28.37 "Hg at 579m altitude)

Humidity: 58%

Dew point: 37 °F

Location of KönizLocation

Historic Weather in Köniz — Graph


Köniz temperature yesterday

Maximum temperature yesterday: 50 °F (at 7:50 PM)
Minimum temperature yesterday: 30 °F (at 12:20 AM)
Average temperature yesterday: 39 °F

Past Weeks' High & Low Weather Summary

High63 °F (Nov 15, 2:20 PM)100% (Nov 15, 8:20 PM)30.45 "Hg (Nov 15, 8:20 PM)
Low19 °F (Nov 24, 4:50 AM)51% (Nov 19, 5:20 PM)29.45 "Hg (Nov 21, 12:50 PM)
Average41 °F87%30.05 "Hg
* Reported Nov 15 10:20 AM — Nov 30 10:50 AM, Köniz, Weather by CustomWeather, © 2015

Note: Actual official high and low records may vary slightly from our data, if they occured in-between our weather recording intervals... More about our weather records


Köniz weather history for previous 24 hours

Time TempWeatherWind HumidityBarometerVisibility
10:50 AM
Mon, Nov 30
50 °FBroken clouds.7 mph67%30.45 "HgN/A
10:20 AM50 °FBroken clouds.6 mph67%30.45 "HgN/A
9:50 AM50 °FMore clouds than sun.5 mph67%30.45 "HgN/A
9:20 AM50 °FBroken clouds.10 mph67%30.45 "HgN/A
7:50 AM48 °FMostly cloudy.8 mph71%30.42 "HgN/A
7:20 AM48 °FPartly cloudy.8 mph71%30.42 "Hg6 mi
6:50 AM48 °FPartly cloudy.15 mph71%30.42 "Hg6 mi
6:20 AM48 °FPartly cloudy.8 mph71%30.42 "Hg6 mi
5:50 AM48 °FSprinkles. Partly cloudy.8 mph71%30.39 "Hg6 mi
5:20 AM48 °FSprinkles. Partly cloudy.7 mph71%30.39 "HgN/A
4:20 AM48 °FPartly cloudy.7 mph71%30.39 "HgN/A
3:50 AM48 °FPassing clouds.6 mph71%30.39 "HgN/A
3:20 AM48 °FLight rain. Passing clouds.13 mph71%30.39 "HgN/A
1:20 AM50 °FPassing clouds.10 mph67%30.39 "HgN/A
12:50 AM50 °FPassing clouds.6 mph67%30.39 "HgN/A
11:50 PM
Sun, Nov 29
50 °FPassing clouds.10 mph67%30.39 "HgN/A
11:20 PM50 °FPartly cloudy.3 mph62%30.36 "HgN/A
10:50 PM48 °FPassing clouds.3 mph66%30.36 "HgN/A
10:20 PM50 °FPartly cloudy.3 mph62%30.36 "HgN/A
9:50 PM46 °FPartly cloudy.2 mph76%30.36 "HgN/A
9:20 PM46 °FPassing clouds.9 mph82%30.36 "HgN/A
8:50 PM50 °FPartly cloudy.5 mph62%30.36 "HgN/A
8:20 PM50 °FPartly cloudy.8 mph62%30.33 "HgN/A
7:50 PM50 °FPassing clouds.8 mph62%30.33 "HgN/A
7:20 PM48 °FPassing clouds.3 mph71%30.33 "HgN/A
6:50 PM43 °FLight rain. Passing clouds.13 mph93%30.33 "HgN/A
6:20 PM46 °FOvercast.6 mph76%30.30 "HgN/A
5:50 PM48 °FOvercast.2 mph71%30.33 "HgN/A
5:20 PM48 °FSprinkles. Passing clouds.5 mph71%30.33 "HgN/A
4:50 PM48 °FMostly cloudy.3 mph71%30.33 "HgN/A
4:20 PM41 °FBroken clouds.3 mph93%30.30 "HgN/A
3:50 PM41 °FBroken clouds.1 mph93%30.30 "HgN/A
3:20 PM41 °FBroken clouds.2 mph93%30.30 "HgN/A
2:50 PM41 °FBroken clouds.1 mph93%30.30 "HgN/A
2:20 PM39 °FBroken clouds.2 mph100%30.27 "HgN/A
1:50 PM39 °FBroken clouds.No wind100%30.27 "HgN/A
1:20 PM39 °FLight rain. Broken clouds.1 mph93%30.27 "HgN/A
12:50 PM39 °FLight rain. More clouds than sun.2 mph93%30.27 "Hg6 mi
12:20 PM37 °FDrizzle. More clouds than sun.2 mph100%30.27 "Hg6 mi
Weather by CustomWeather, © 2015

See weather overviewHow to use our weather pages